Location: La Chapelle
(48.3135°N, 1.3085°W)
Time: 23:56:13
(UTC+00:00)

SL-08 R/B - Pass Details

Date: 03 March 2021
Orbit: 949 x 1019 km, 82.9° (Epoch: 20 April)

Event Time Altitude Azimuth Distance (km) Brightness Sun altitude
Exits shadow 20:11:51 25° 166° (SSE) 1,935 5.8 -23.7°
Maximum altitude 20:15:45 63° 93° (E) 1,130 4.5 -24.3°
Drops below altitude 10° 20:22:08 10° 15° (NNE) 2,819 7.0 -25.3°
Sets 20:24:43 0° 12° (NNE) 3,772 7.7 -25.7°
